www.pogodaiklimat.ru

Погода и климат >> Архив погоды >> Боливия >> Puerto Suarez


ПОГОДА в Puerto Suarez

  • Прогноз погоды в Puerto Suarez
  • Монитор погоды в Puerto Suarez
  • Климат города

АРХИВ ПОГОДЫ в Puerto Suarez

Время (UTC), дата Ветер
(напр.,м/с)
 
Видим.   Явления Облачность Т
(С)
Тd
(С)
f
(%)
Тe
(С)
Тes
(С)
Комфортность P
(гПа)
Po
(гПа)
Тmin
(С)
Tmax
(С)
R
(мм)
R24
(мм)
S
(см)
21 12.10 штиль 0 8000 м дым ясно +37.0 +21.9 42 +45 +47 опасность
перегрева
1004.1 988.8 +39.0
12 13.10 ЮЗ 6 9000 м дым 5/0 2000 м
[Ac trans]
+24.7 +18.2 67 +29 +31 душно 1012.4 997.0 +22.0
15 13.10 ЮЗ 6 9000 м дым 9/9 450 м
[Sc]
+26.0 +18.5 63 +31 +32 очень
душно
1013.4 998.0
18 13.10 ЮЗ 5 8000 м дым 9/0
[Ci]
+26.0 +18.0 61 +30 +37 душно 1011.8 996.4
21 13.10 ЮЗ 5 20 км дым 9/5 500 м
[Sc Ci]
+24.0 +17.3 66 +28 +28 душно 1010.8 995.5 +29.0
12 14.10 Ю 4 30 км 10/10 400 м
[Sc]
+18.0 +14.2 78 +18 +18 1017.5 1002.2 +16.0
15 14.10 Ю 4 30 км 9/9 450 м
[Sc]
+22.0 +15.6 67 +26 +27 душно 1016.8 1001.5
18 14.10 Ю 3 30 км ясно +25.0 +18.3 66 +29 +42 душно 1014.6 999.2
21 14.10 Ю 4 30 км 8/0
[Cs]
+26.5 +17.5 58 +31 +32 душно 1012.7 997.5 +28.0
12 15.10 Ю 3 30 км ясно +22.0 +17.4 75 +26 +32 душно 1016.3 1001.0 +15.0
15 15.10 штиль 0 30 км ясно +27.0 +16.3 52 +30 +58 опасность
солнечного
удара
1015.2 999.8
18 15.10 штиль 0 30 км ясно +32.0 +22.3 57 +41 +63 опасность
перегрева
1012.3 996.8
21 15.10 штиль 0 30 км ясно +32.0 +21.5 54 +40 +42 очень
душно
1010.3 995.0 +33.8
12 16.10 штиль 0 8000 м дым ясно +27.1 +20.5 67 +34 +43 очень
душно
1013.0 997.6 +21.5
15 16.10 штиль 0 8000 м дым ясно +33.6 +21.2 48 +41 +69 опасность
перегрева
1012.6 997.2
18 16.10 В 5 8000 м дым ясно +35.7 +24.2 52 +48 +56 опасность
перегрева
1009.4 994.0
21 16.10 В 4 9000 м дым ясно +35.0 +23.8 52 +46 +47 опасность
перегрева
1007.3 992.0 +36.7
12 17.10 штиль 0 5000 м дым 8/8 600 м
[Sc]
+28.5 +24.4 79 +40 +42 очень
душно
1010.6 995.3 +22.0
15 17.10 В 3 6000 м дым 9/0 2000 м
[Ac trans]
+35.0 +23.5 51 +46 +54 опасность
перегрева
1010.6 995.2
18 17.10 штиль 0 8000 м дым ясно +38.0 +23.5 44 +49 +70 опасность
перегрева
1007.3 992.0
21 17.10 В 3 8000 м дым ясно +36.0 +25.6 55 +51 +52 опасность
перегрева
1005.6 990.2 +38.5
12 18.10 В 3 8000 м дым ясно +29.4 +22.0 64 +38 +44 очень
душно
1010.3 995.0 +22.5
15 18.10 В 5 8000 м дым ясно +35.7 +21.9 45 +44 +55 опасность
перегрева
1010.2 994.8
18 18.10 В 4 5000 м дым ясно +38.8 +19.2 32 +43 +54 опасность
перегрева
1006.7 991.4
21 18.10 В 4 6000 м дым ясно +34.0 +23.1 53 +44 +45 опасность
перегрева
1005.3 990.0 +39.5
12 19.10 штиль 0 7000 м дым ясно +31.0 +24.6 69 +44 +53 опасность
перегрева
1008.6 993.5 +25.0
15 19.10 штиль 0 7000 м дым ясно +37.0 +26.5 55 +53 +82 опасность
перегрева
1009.4 994.0

 

Местоположение метеостанции Puerto Suarez (Боливия): широта -18.98 долгота -57.81 высота над уровнем моря 134 м.

В архиве по умолчанию представлена погода в Puerto Suarez за последнюю неделю. Архивные данные за месяц целиком и за предыдущие месяцы, начиная с января 2011 года, Вы можете получить, выбрав интересующий диапазон дат из раскрывающегося списка и нажав кнопку "Ввод!".

Внимание! Время в таблицах - всемирное. Для получения местного времени необходимо прибавить поправку, которая в Puerto Suarez равна -4 ч.

Смотрите также архив погоды в соседних городах и на ближайших метеорологических станциях:

Погода в Robore (Боливия) (219 км)
Погода в San Matias (Боливия) (301 км)
Погода в Caceres (Бразилия) (326 км)
Погода в San Jose De Chiquit (Боливия) (335 км)
Погода в Puerto Casado (Парагвай) (367 км)
Погода в Campo Grande (Бразилия) (369 км)
Погода в Cuiaba (Бразилия) (412 км)
Погода в San Ignacio De Vela (Боливия) (442 км)
Погода в Mariscal Estigar (Парагвай) (445 км)
Погода в Ponta Pora (Бразилия) (452 км)

Пояснения к столбцам:

Ветер - указаны скорость ветра в м/с - средняя за 10 мин, порывы в срок и между сроками (в фигурных скобках) и направление, откуда дует ветер: С - северный, СВ - северо-восточный, В - восточный, ЮВ - юго-восточный, Ю - южный, ЮЗ - юго-западный, З - западный, СЗ - северо-западный.
Видимость - горизонтальная дальность видимости в метрах или километрах. При видимости от 1 до 10 км при отсутствии осадков обычно наблюдается дымка, при ухудшении видимости до 1 км и менее - туман. В сухую погоду видимость может ухудшаться дымом, пылью или мглою.
Явления - указаны атмосферные явления, наблюдавшиеся в срок или в последний час перед сроком; фигурными скобками обозначены явления, наблюдавшиеся между сроками (за 1-3 часа до срока); квадратными скобками обозначены град или гололедные отложения с указанием их диаметра в мм.
Облачность - указаны через наклонную черту общая и нижняя облачность в баллах и высота нижней границы облаков в метрах; квадратными скобками обозначены формы облаков: Ci - перистые, Cs - перисто-слоистые, Cc - перисто-кучевые, Ac - высококучевые, As - высокослоистые, Sc - слоисто-кучевые, Ns - слоисто-дождевые, Cu - кучевые, Cb - кучево-дождевые. Подробнее классификацию облаков см. в Атласе облаков (PDF).
T - Температура воздуха - температура, измеренная на высоте 2 м над землей.
Td - Температура точки росы - температура, при понижении до которой содержащийся в воздухе водяной пар достигнет насыщения.
f - Относительная влажность воздуха - влажноcть воздуха, измеренная на высоте 2 м над землей.
Te - Эффективная температура - температура, которую ощущает одетый по сезону человек в тени. Характеристика душности погоды. При расчете учитывается влияние влажности воздуха и скорости ветра на теплоощущения человека.
Tes - Эффективная температура на солнце - температура, которую ощущает человек, с поправкой на солнечный нагрев. Характеристика знойности погоды. Зависит от высоты солнца над горизонтом, облачности и скорости ветра. Ночью, в пасмурную погоду, а также при ветре 12 м/с и более поправка равна нулю.
P - Атмосферное давление - приведенное к уровню моря атмосферное давление.
Po - Атмосферное давление - измеренное на уровне метеостанции атмосферное давление.
Tmin - Минимальная температура - минимум температуры воздуха на высоте 2 м над землей.
Tmax - Максимальная температура - максимум температуры воздуха на высоте 2 м над землей.
R - Количество осадков - Количество выпавших осадков за период времени, мм. При наведении курсора мыши на число - период времени, за который выпало указанное количество осадков.
R24 - Количество осадков - Количество выпавших осадков за 24 часа, мм.
S - Снежный покров - Высота снежного покрова, см. При наведении курсора мыши на число - состояние снежного покрова и степень покрытия местности в баллах.